sat.trackr.live / text

‹ back to catalog

STARLINK-35818

NORAD 66540 · 2025-265AA

PAYLOAD ACTIVE UNKNOWN

§ Identity

Operator
Country
US
Launch date
2025-11-19
Launch site
AFETR
Launch vehicle
Mass (kg)
RCS (m²)

Purposes: comms

External: N2YO · Heavens-Above · Gunter

§ Orbital elements

Epoch: 2026-05-24T21:34:28.175808Z

Period
94.27 min
Inclination
42.9990°
Eccentricity
0.0000401
Mean motion
15.27574432 rev/d
Perigee alt
482.8 km
Apogee alt
483.3 km
Semi-major
6,861.2 km
B*
1.1889e-4
RAAN
207.9740°
Arg perigee
75.6268°
Mean anomaly
284.4628°
Rev number
2,876

§ Raw data

STARLINK-358181 66540U 25265AA  26144.89893722  .00003011  00000+0  11889-3 0  99902 66540  42.9990 207.9740 0000401  75.6268 284.4628 15.27574432 28761

JSON: /api/v1/satellites/66540 · /tle

For live sub-satellite position, see the globe view (requires WebGL).

§ Visibility from observer

Set your observer location to see the next 7 days of passes ≥ 10°. The values pass through the URL so the page stays shareable.

No JS? Fill the form by hand. The geolocation button needs JavaScript.